Location: Kapla
(46.2483°N, 15.0094°E)
Time: 15:30:23
(UTC+00:00)

OBJECT-B - Pass Details

Date: 03 March 2021
Orbit: 414 x 427 km, 97.0° (Epoch: 11 April)

Event Time Altitude Azimuth Distance (km) Brightness Sun altitude
Exits shadow 18:05:12 19° 52° (NE) 1,072 2.4 -13.9°
Drops below altitude 10° 18:07:03 10° 19° (NNE) 1,514 3.4 -14.2°
Sets 18:09:23 0° 2° (N) 2,381 4.6 -14.7°
